TimeEST,TemperatureF,Dew PointF,Humidity,Sea Level PressureIn,VisibilityMPH,Wind Direction,Wind SpeedMPH,Gust SpeedMPH,PrecipitationIn,Events,Conditions,WindDirDegrees,DateUTC
12:51 AM,44.1,23.0,43,30.27,10.0,SSE,3.5,-,N/A,,Clear,160,2012-02-04 05:51:00
1:51 AM,45.0,24.1,44,30.26,10.0,SW,4.6,-,N/A,,Clear,220,2012-02-04 06:51:00
2:51 AM,43.0,23.0,45,30.25,10.0,SW,3.5,-,N/A,,Clear,220,2012-02-04 07:51:00
3:51 AM,41.0,25.0,53,30.25,10.0,Calm,Calm,-,N/A,,Clear,0,2012-02-04 08:51:00
4:51 AM,43.0,25.0,49,30.23,10.0,South,3.5,-,N/A,,Clear,190,2012-02-04 09:51:00
5:51 AM,44.1,26.1,49,30.23,10.0,Calm,Calm,-,N/A,,Clear,0,2012-02-04 10:51:00
6:51 AM,45.0,25.0,46,30.24,10.0,Calm,Calm,-,N/A,,Mostly Cloudy,0,2012-02-04 11:51:00
7:51 AM,44.1,30.9,60,30.23,10.0,South,3.5,-,N/A,,Overcast,170,2012-02-04 12:51:00
8:51 AM,48.0,27.0,44,30.23,10.0,SSW,4.6,-,N/A,,Overcast,200,2012-02-04 13:51:00
9:51 AM,50.0,28.0,43,30.19,10.0,South,4.6,-,0.00,,Overcast,190,2012-02-04 14:51:00
10:17 AM,48.2,30.2,50,30.17,10.0,Calm,Calm,-,N/A,,Overcast,0,2012-02-04 15:17:00
10:51 AM,50.0,32.0,50,30.16,10.0,SSW,3.5,-,N/A,,Overcast,200,2012-02-04 15:51:00
11:36 AM,51.8,33.8,50,30.13,10.0,SW,11.5,17.3,N/A,,Overcast,220,2012-02-04 16:36:00
11:51 AM,51.1,39.0,63,30.12,10.0,SSW,6.9,-,N/A,,Overcast,200,2012-02-04 16:51:00
12:51 PM,46.9,44.1,90,30.10,3.0,SW,3.5,-,0.03,Rain,Light Rain,220,2012-02-04 17:51:00
1:07 PM,46.4,44.6,93,30.07,2.5,Calm,Calm,-,0.01,,Overcast,0,2012-02-04 18:07:00
1:12 PM,46.4,44.6,93,30.07,1.8,Calm,Calm,-,0.01,Rain,Light Rain,0,2012-02-04 18:12:00
1:21 PM,46.4,44.6,93,30.06,3.0,SSE,3.5,-,0.01,Rain,Light Rain,150,2012-02-04 18:21:00
1:37 PM,46.4,44.6,93,30.05,3.0,SSE,3.5,-,0.02,,Overcast,150,2012-02-04 18:37:00
1:44 PM,46.4,44.6,93,30.05,2.0,Calm,Calm,-,0.02,Rain,Light Rain,0,2012-02-04 18:44:00
1:51 PM,46.9,45.0,93,30.06,2.5,Calm,Calm,-,0.02,Rain,Light Rain,0,2012-02-04 18:51:00
2:06 PM,46.4,44.6,93,30.05,1.2,NW,4.6,-,0.01,Rain,Light Rain,320,2012-02-04 19:06:00
2:12 PM,44.6,42.8,93,30.05,0.5,NNW,5.8,-,0.03,Fog-Rain,Rain,340,2012-02-04 19:12:00
2:19 PM,44.6,42.8,93,30.06,0.2,North,5.8,-,0.05,Fog-Rain,Light Rain,350,2012-02-04 19:19:00
2:29 PM,44.6,42.8,93,30.05,0.8,Calm,Calm,-,0.07,Rain,Light Rain,0,2012-02-04 19:29:00
2:37 PM,44.6,44.6,100,30.05,2.0,Calm,Calm,-,0.08,Rain,Light Rain,0,2012-02-04 19:37:00
2:51 PM,46.0,44.1,93,30.06,3.0,Calm,Calm,-,0.10,Rain,Light Rain,0,2012-02-04 19:51:00
3:19 PM,44.6,42.8,93,30.04,2.5,Calm,Calm,-,0.04,Rain,Rain,0,2012-02-04 20:19:00
3:24 PM,44.6,42.8,93,30.04,3.0,Calm,Calm,-,0.05,Rain,Light Rain,0,2012-02-04 20:24:00
3:51 PM,46.0,44.1,93,30.06,4.0,WNW,3.5,-,0.05,Rain,Light Rain,300,2012-02-04 20:51:00
3:55 PM,46.4,44.6,93,30.04,2.0,NNW,5.8,-,0.00,Rain,Light Rain,330,2012-02-04 20:55:00
3:59 PM,44.6,42.8,93,30.04,0.8,North,6.9,-,0.01,Rain,Light Rain,360,2012-02-04 20:59:00
4:24 PM,44.6,42.8,93,30.03,1.8,Calm,Calm,-,0.03,Rain,Light Rain,0,2012-02-04 21:24:00
4:51 PM,45.0,44.1,97,30.05,1.8,West,3.5,-,0.05,Rain,Light Rain,280,2012-02-04 21:51:00
4:56 PM,44.6,44.6,100,30.03,3.0,WSW,3.5,-,0.00,Rain,Light Rain,240,2012-02-04 21:56:00
5:03 PM,46.4,44.6,93,30.03,2.5,WSW,3.5,-,0.00,Rain,Light Rain,240,2012-02-04 22:03:00
5:24 PM,46.4,44.6,93,30.03,3.0,WSW,4.6,-,0.01,,Overcast,240,2012-02-04 22:24:00
5:35 PM,46.4,44.6,93,30.03,2.0,WSW,4.6,-,0.01,,Overcast,240,2012-02-04 22:35:00
5:51 PM,46.0,44.1,93,30.04,3.0,SW,5.8,-,0.01,,Overcast,230,2012-02-04 22:51:00
6:51 PM,46.0,44.1,93,30.05,9.0,SW,4.6,-,N/A,,Overcast,230,2012-02-04 23:51:00
7:36 PM,46.4,44.6,93,30.03,2.0,Calm,Calm,-,N/A,,Overcast,0,2012-02-05 00:36:00
7:51 PM,46.0,45.0,96,30.05,2.0,Calm,Calm,-,N/A,,Overcast,0,2012-02-05 00:51:00
8:12 PM,46.4,44.6,93,30.03,3.0,Calm,Calm,-,0.01,,Overcast,0,2012-02-05 01:12:00
8:35 PM,46.4,44.6,93,30.03,2.0,Calm,Calm,-,0.01,Rain,Light Rain,0,2012-02-05 01:35:00
8:44 PM,46.4,44.6,93,30.03,1.8,Calm,Calm,-,0.01,,Overcast,0,2012-02-05 01:44:00
8:51 PM,46.0,44.1,93,30.04,2.0,Calm,Calm,-,0.02,,Overcast,0,2012-02-05 01:51:00
9:51 PM,46.0,45.0,96,30.01,2.0,Calm,Calm,-,0.01,Rain,Light Rain,0,2012-02-05 02:51:00
10:17 PM,46.4,44.6,93,30.01,1.8,Calm,Calm,-,0.01,Rain,Light Rain,0,2012-02-05 03:17:00
10:29 PM,46.4,44.6,93,30.00,2.0,Calm,Calm,-,0.02,Rain,Light Rain,0,2012-02-05 03:29:00
10:47 PM,46.4,44.6,93,30.00,4.0,Calm,Calm,-,0.03,Rain,Light Rain,0,2012-02-05 03:47:00
10:51 PM,46.0,44.1,93,30.00,4.0,Calm,Calm,-,0.04,Rain,Light Rain,0,2012-02-05 03:51:00
11:40 PM,46.4,44.6,93,29.98,2.5,Calm,Calm,-,0.01,Rain,Light Rain,0,2012-02-05 04:40:00
11:51 PM,46.0,45.0,96,29.99,4.0,Calm,Calm,-,0.02,Rain,Light Rain,0,2012-02-05 04:51:00